Location: Newark
(42.8481°N, 0.4872°E)
Time: 06:22:48
(UTC+00:00)

Explorer 7 - Pass Details

Date: 31 October 2020
Orbit: 484 x 678 km, 50.3° (Epoch: 30 November)

Event Time Altitude Azimuth Distance (km) Brightness Sun altitude
Rises 19:04:27 0° 294° (WNW) 2,624 11.4 -24.9°
Reaches altitude 10° 19:06:45 10° 284° (WNW) 1,762 10.4 -25.3°
Maximum altitude 19:10:18 31° 221° (SW) 964 8.3 -25.9°
Enters shadow 19:10:41 30° 210° (SSW) 980 8.2 -26.0°
